Tracking 19636 objects as of 25-May-2019
HD Live streaming from Space Station
objects crossing your sky now

GALAXY 4R

Track GALAXY 4R now!
GALAXY 4R is classified as:


NORAD ID: 26298
Int'l Code: 2000-020A
Perigee: 35,912.6 km
Apogee: 35,923.2 km
Inclination: 9.5 °
Period: 1,442.4 minutes
Semi major axis: 42288 km
RCS: 26.0372 m2 (large)
Launch date: April 19, 2000
Source: United States (US)
Launch site: FRENCH GUIANA (FRGUI)

Television and Internet; 24 C-band, 24 Ku-band; North America.
aabbcc
Your satellite tracking list
Your tracking list is empty




NASA's NSSDC Master Catalog

Two Line Element Set (TLE):
1 26298U 00020A   19144.35596587  .00000073  00000-0  00000+0 0  9995
2 26298   9.4696  40.8749 0001254 292.8302 267.2824  0.99830518 69899
Source of the keplerian elements: AFSPC